This is the latest recevied weather packets stored in our database for station/object VK6DUG. If no packets are shown the sender has not sent any weather packets the latest 10 day(s).
| Time | Temp. | Humidity | Pressure | Rain* | Wind** | Luminosity | Snow |
|---|---|---|---|---|---|---|---|
| 1778119835 | 18.33° C | 58% | 1034.8 hPa | 0 mm | - | 389 W/m² | - |
| 1778119233 | 17.78° C | 60% | 1034.8 hPa | 0 mm | - | 363 W/m² | - |
| 1778118630 | 17.78° C | 62% | 1035 hPa | 0 mm | - | 336 W/m² | - |
| 1778118027 | 17.22° C | 64% | 1034.9 hPa | 0 mm | - | 309 W/m² | - |
| 1778117425 | 16.67° C | 67% | 1035.1 hPa | 0 mm | - | 278 W/m² | - |
| 1778116822 | 16.11° C | 69% | 1035.1 hPa | 0 mm | - | 246 W/m² | - |
| 1778116220 | 15.56° C | 70% | 1035.2 hPa | 0 mm | - | 221 W/m² | - |
| 1778115618 | 15° C | 73% | 1035.2 hPa | 0 mm | - | 201 W/m² | - |
| 1778115034 | 14.44° C | 76% | 1035.1 hPa | 0 mm | - | 171 W/m² | - |
| 1778114431 | 13.89° C | 78% | 1035.2 hPa | 0 mm | - | 125 W/m² | - |
| 1778113829 | 13.33° C | 83% | 1035.2 hPa | 0 mm | - | 76 W/m² | - |
| 1778113227 | 12.22° C | 87% | 1035.2 hPa | 0 mm | - | 85 W/m² | - |
| 1778112624 | 11.11° C | 90% | 1035.2 hPa | 0 mm | - | 85 W/m² | - |
| 1778112022 | 10° C | 90% | 1035.2 hPa | 0 mm | - | 71 W/m² | - |
| 1778111419 | 8.89° C | 89% | 1035.1 hPa | 0 mm | - | 29 W/m² | - |
| 1778110817 | 8.33° C | 89% | 1035 hPa | 0 mm | - | 23 W/m² | - |
| 1778110234 | 8.33° C | 89% | 1034.9 hPa | 0 mm | - | 19 W/m² | - |
| 1778109630 | 8.33° C | 89% | 1034.9 hPa | 0 mm | - | 15 W/m² | - |
| 1778109028 | 8.33° C | 88% | 1034.8 hPa | 0 mm | - | 10 W/m² | - |
| 1778108424 | 8.33° C | 88% | 1034.7 hPa | 0 mm | - | 5 W/m² | - |
| 1778107821 | 8.33° C | 88% | 1034.6 hPa | 0 mm | - | 2 W/m² | - |
| 1778107218 | 8.33° C | 87% | 1034.4 hPa | 0 mm | - | 0 W/m² | - |
| 1778106635 | 8.33° C | 87% | 1034.3 hPa | 0 mm | - | 0 W/m² | - |
| 1778106033 | 8.33° C | 87% | 1034.4 hPa | 0 mm | - | 0 W/m² | - |
| 1778105428 | 8.33° C | 86% | 1034.2 hPa | 0 mm | - | 0 W/m² | - |
* Rain latest hour (hover to see other rain measurements)
** Current wind speed in m/s (hover to see current wind gust speed)